Lander, WY

11:02 PM MST on February 09, 2016 (GMT -0700)
Hunt

Weather History for KLND - January, 2015

Change the Weather History Date:

Wednesday, January 7, 2015

  Actual Average Record
Temperature  
Mean Temperature 14 °F 21 °F  
Max Temperature 17 °F 33 °F 55 °F (1948)
Min Temperature 11 °F 10 °F -26 °F (1913)
Degree Days  
Heating Degree Days 51 44  
Month to date heating degree days 381 308  
Since 1 July heating degree days 3208 3554  
Cooling Degree Days 0 0  
Month to date cooling degree days 0 0  
Year to date cooling degree days 0 0  
Moisture  
Dew Point 10 °F    
Average Humidity 88    
Maximum Humidity 96    
Minimum Humidity 80    
Precipitation  
Precipitation T in 0.01 in 0.29 in (1992)
Month to date precipitation T 0.10  
Year to date precipitation T 0.10  
Snow  
Snow T in 0.30 in - ()
Month to date snowfall 0.1 1.9  
Since 1 July snowfall 30.1 37.6  
Snow Depth 8.00 in    
Sea Level Pressure  
Sea Level Pressure 30.61 in    
Wind  
Wind Speed 3 mph (North)    
Max Wind Speed 12 mph    
Max Gust Speed 15 mph    
Visibility 5 miles    
Events Snow    
T = Trace of Precipitation, MM = Missing Value Source: NWS Daily Summary

Daily Weather History Graph

Daily Weather History Graph

Search for Another Location

Airport or City:

Trip Planner

Search our weather history database for the weather conditions in past years. The results will help you decide how hot, cold, wet, or windy it might be!

Date:

Astronomy

Jan. 07, 2015 Rise Set
Actual Time 7:45 AM MST 4:57 PM MST
Civil Twilight 7:13 AM MST 5:29 PM MST
Nautical Twilight 6:38 AM MST 6:04 PM MST
Astronomical Twilight 6:04 AM MST 6:38 PM MST
Moon 7:48 PM MST (1/7) 8:56 AM MST (1/7)
Length of Visible Light 10h 15m
Length of Day
9h 11m
Waning Gibbous, 94% of the Moon is Illuminated
Jan 7
Waning Gibbous
Jan 13
Last Quarter
Jan 20
New
Jan 26
First Quarter
Feb 3
Full

Hourly Weather History & Observations

Time (MST) Temp. Windchill Dew Point Humidity Pressure Visibility Wind Dir Wind Speed Gust Speed Precip Events Conditions
12:12 AM 12.9 °F 3.8 °F 9.0 °F 84% 30.53 in 10.0 mi North 5.8 mph - N/A   Overcast
12:53 AM 12.9 °F 5.2 °F 8.1 °F 81% 30.66 in 10.0 mi NNW 4.6 mph - N/A   Overcast
1:53 AM 12.9 °F 2.6 °F 8.1 °F 81% 30.67 in 10.0 mi North 6.9 mph - N/A   Overcast
2:03 AM 12.0 °F 2.7 °F 8.1 °F 84% 30.60 in 10.0 mi North 5.8 mph - N/A   Overcast
2:53 AM 12.0 °F 4.1 °F 8.1 °F 84% 30.73 in 10.0 mi NNW 4.6 mph - N/A   Overcast
3:53 AM 12.9 °F - 8.1 °F 81% 30.74 in 10.0 mi Calm Calm - N/A   Overcast
4:35 AM 12.9 °F 6.9 °F 9.0 °F 84% 30.64 in 8.0 mi NNW 3.5 mph - N/A   Overcast
4:53 AM 12.0 °F 2.7 °F 9.0 °F 88% 30.75 in 5.0 mi NNE 5.8 mph - N/A   Overcast
5:53 AM 12.0 °F - 10.9 °F 95% 30.74 in 3.0 mi Calm Calm - N/A   Overcast
6:08 AM 12.9 °F 5.2 °F 10.0 °F 88% 30.64 in 2.5 mi NW 4.6 mph - N/A   Overcast
6:53 AM 12.9 °F 6.9 °F 10.9 °F 92% 30.75 in 2.5 mi North 3.5 mph - N/A   Overcast
7:31 AM 12.9 °F 3.8 °F 10.9 °F 92% 30.64 in 3.0 mi NW 5.8 mph - N/A   Overcast
7:41 AM 12.0 °F - 10.9 °F 95% 30.64 in 1.8 mi Calm Calm - N/A   Overcast
7:53 AM 12.0 °F 5.9 °F 9.0 °F 88% 30.78 in 1.0 mi East 3.5 mph - N/A   Mist
8:01 AM 12.2 °F - 10.4 °F 92% 30.65 in 0.8 mi Calm Calm - N/A   Mist
8:10 AM 12.0 °F - 10.9 °F 95% 30.65 in 1.2 mi Calm Calm - N/A   Overcast
8:53 AM 12.0 °F - 10.0 °F 92% 30.82 in 1.5 mi Calm Calm - 0.00 in Snow Light Snow
9:37 AM 12.9 °F 6.9 °F 10.9 °F 92% 30.63 in 2.0 mi East 3.5 mph - 0.00 in   Overcast
9:53 AM 12.9 °F 5.2 °F 10.0 °F 88% 30.83 in 3.0 mi East 4.6 mph - 0.00 in   Overcast
10:53 AM 14.0 °F - 12.0 °F 92% 30.82 in 3.0 mi Calm Calm - N/A   Overcast
11:16 AM 15.1 °F - 12.0 °F 88% 30.57 in 4.0 mi Calm Calm - N/A   Overcast
11:53 AM 16.0 °F - 12.9 °F 88% 30.76 in 5.0 mi Calm Calm - N/A   Overcast
12:53 PM 17.1 °F - 12.0 °F 81% 30.71 in 6.0 mi Calm Calm - N/A   Haze
1:53 PM 16.0 °F - 12.9 °F 88% 30.68 in 7.0 mi Calm Calm - N/A   Overcast
2:53 PM 16.0 °F - 12.9 °F 88% 30.66 in 7.0 mi Calm Calm - N/A   Overcast
3:53 PM 16.0 °F 10.4 °F 12.0 °F 84% 30.63 in 7.0 mi ENE 3.5 mph - N/A   Overcast
4:53 PM 16.0 °F - 12.0 °F 84% 30.59 in 7.0 mi Calm Calm - N/A   Overcast
5:53 PM 15.1 °F 9.4 °F 12.0 °F 88% 30.55 in 8.0 mi NNW 3.5 mph - N/A   Overcast
6:53 PM 15.1 °F - 10.9 °F 84% 30.52 in 6.0 mi Calm Calm - N/A   Overcast
7:24 PM 14.0 °F 8.2 °F 12.0 °F 92% 30.29 in 6.0 mi North 3.5 mph - N/A   Scattered Clouds
7:53 PM 12.0 °F 2.7 °F 10.0 °F 92% 30.50 in 5.0 mi SSE 5.8 mph - N/A   Clear
8:53 PM 12.0 °F - 10.0 °F 92% 30.42 in 4.0 mi Calm Calm - N/A   Clear
9:17 PM 14.0 °F 5.1 °F 10.9 °F 88% 30.20 in 5.0 mi Variable 5.8 mph - N/A   Partly Cloudy
9:53 PM 12.9 °F 1.6 °F 10.0 °F 88% 30.42 in 5.0 mi WNW 8.1 mph - N/A   Partly Cloudy
10:53 PM 12.0 °F -0.4 °F 9.0 °F 88% 30.36 in 6.0 mi SE 9.2 mph - N/A   Clear
11:53 PM 12.9 °F 1.6 °F 10.0 °F 88% 30.34 in 6.0 mi West 8.1 mph - N/A   Clear